Bodensee (Kressbronn): 6,7°C  -  Teich der Wetterzentrale Bad Schussenried: 6,1°C |  Schneehöhe Kreuzthal-Steinberg (930 m ü. NN): 8 cm   
01.04.2020Höhe
ü. NN
ZeitTemperatur (°C)Nieder-
schlag
Luft-
feuchte
Luft-
druck
Wind
StationaktuellMinimumMaximumaktuellMaximum
Aldingen654 m04:26-2,6-2,6 (07:35)-0,3 (16:02)0,0 l/m²74%1024,10,0 km/h (0 Bft) O29,6 km/h (5 Bft) W (14:48)
Allmendingen541 m04:25-5,4-5,4 (07:35)-2,1 (15:10)0,0 l/m²86%1023,70,0 km/h (0 Bft) O-NO35,4 km/h (5 Bft) O (15:35)
Altshausen574 m04:25-2,8-2,8 (04:24)-1,1 (00:16)0,0 l/m²63%1021,63,2 km/h (1 Bft) N-NO8,0 km/h (2 Bft) N-NO (01:07)
Amstetten-Reutti663 m04:25-3,9-3,9 (05:15)-1,5 (16:55)0,0 l/m²83%1023,63,2 km/h (1 Bft) O48,3 km/h (6 Bft) W (15:55)
Amtzell-Grenis677 m04:25-2,8-3,1 (03:35)-1,4 (00:00)0,0 l/m²60%1023,66,4 km/h (2 Bft) W-SW6,4 km/h (2 Bft) W-SW (00:00)
Aulendorf570 m04:25-2,0-2,0 (04:19)-0,5 (00:00)0,0 l/m²68%1022,36,4 km/h (2 Bft) N11,3 km/h (2 Bft) NO (02:20)
Bad Krozingen233 m04:25-0,9-0,9 (07:30)3,7 (16:05)0,0 l/m²72%1023,31,7 km/h (1 Bft) S-SW38,1 km/h (5 Bft) N (17:05)
Bad Saulgau595 m04:25-4,1-4,1 (06:45)-1,9 (15:00)0,0 l/m²83%1022,20,0 km/h (0 Bft) SO25,7 km/h (4 Bft) S (11:35)
Bad Saulgau, Mannsgrab588 m04:02-4,2-4,3 (03:44)-1,7 (00:17)0,0 l/m²85%1024,80,0 km/h (0 Bft) W-NW0,0 km/h (0 Bft) N (00:00)
Bad Saulgau-Lampertsweiler627 m04:25-1,7-1,7 (04:20)0,2 (00:00)0,0 l/m²73%1025,220,9 km/h (4 Bft) N-NW22,5 km/h (4 Bft) N-NW (01:15)
Bad Schussenried572 m04:25-3,2-3,2 (04:20)-1,1 (00:00)0,0 l/m²85%1021,70,0 km/h (0 Bft) NO9,7 km/h (2 Bft) NO (03:15)
Bergatreute615 m01:45-0,7-0,7 (00:45)0,0 (00:00)0,0 l/m²77%1023,512,9 km/h (3 Bft) NO16,1 km/h (3 Bft) O-NO (01:40)
Biberach (Riss), Boehringer533 m04:30-3,4-3,5 (04:30)-1,1 (00:30)0,0 l/m²86%1022,54,3 km/h (1 Bft) N11,9 km/h (3 Bft) N (03:00)
Biberach (Riss), Realschule553 m04:30-3,3-3,3 (04:30)-0,3 (00:00)0,0 l/m²84%1024,38,0 km/h (2 Bft) NW11,3 km/h (2 Bft) N-NO (03:35)
Burgrieden523 m04:25-3,0-3,0 (04:25)-0,4 (00:00)0,0 l/m²79%1023,40,0 km/h (0 Bft) NO4,8 km/h (1 Bft) O-NO (02:50)
Burgrieden-Hochstetten510 m04:25-3,3-3,4 (06:50)-0,9 (15:40)0,0 l/m²87%1023,84,8 km/h (1 Bft) N-NW25,7 km/h (4 Bft) NO (12:55)
Ebersbach579 m04:25-2,0-2,0 (04:20)-0,1 (00:00)0,0 l/m²79%1023,84,8 km/h (1 Bft) N16,1 km/h (3 Bft) NO (01:25)
Ebersbach-Boos605 m04:25-2,8-2,8 (04:25)-0,1 (00:00)0,0 l/m²83%1023,516,1 km/h (3 Bft) O-NO22,5 km/h (4 Bft) O (01:00)
Ebersbach-Menzenweiler661 m04:25-2,8-2,8 (04:25)-0,6 (00:00)0,0 l/m²83%1023,516,1 km/h (3 Bft) O-NO24,1 km/h (4 Bft) O-NO (01:05)
Ehingen535 m01:10-2,5-2,5 (01:10)-1,3 (00:05)0,0 l/m²70%1025,40,0 km/h (0 Bft) N-NO5,0 km/h (1 Bft) N-NO (00:15)
Erlenmoos645 m04:25-2,6-2,6 (04:15)-0,9 (00:00)0,0 l/m²85%1023,28,0 km/h (2 Bft) O-NO12,9 km/h (3 Bft) O-NO (01:35)
Ertingen569 m04:25-2,6-2,7 (02:50)-0,6 (00:00)0,0 l/m²82%1023,39,7 km/h (2 Bft) N16,1 km/h (3 Bft) N-NO (04:10)
Friedrichshafen405 m04:25-0,8-0,8 (06:45)0,9 (13:30)0,0 l/m²74%1023,012,9 km/h (3 Bft) NO27,4 km/h (4 Bft) NO (15:10)
Günzburg443 m04:25-3,8-3,8 (04:25)-1,1 (00:00)0,0 l/m²85%1021,50,0 km/h (0 Bft) NO0,0 km/h (0 Bft) NO (00:00)
Hochdorf-Appendorf537 m04:25-4,2-4,4 (03:40)-1,7 (00:15)0,0 l/m²64%1023,16,4 km/h (2 Bft) N-NW14,5 km/h (3 Bft) N-NW (03:20)
Höchsten802 m04:25-3,1-3,2 (04:20)-1,4 (00:00)0,0 l/m²79%1021,122,5 km/h (4 Bft) N-NO25,7 km/h (4 Bft) NO (02:45)
Horgenzell618 m04:25-1,9-1,9 (03:45)-0,6 (00:05)0,0 l/m²76%1020,94,8 km/h (1 Bft) N-NO19,3 km/h (3 Bft) N-NO (00:50)
Hoßkirch632 m04:25-4,8-4,8 (04:25)-1,0 (00:15)0,0 l/m²84%1022,21,6 km/h (1 Bft) O14,5 km/h (3 Bft) O-NO (00:20)
Isny, Am Dreifingerbach695 m04:25-2,7-2,9 (02:30)0,1 (01:00)0,0 l/m²77%1022,10,0 km/h (0 Bft) W14,5 km/h (3 Bft) O-NO (01:05)
Isny, Weidachweg706 m04:25-1,5-1,7 (04:20)0,3 (00:25)0,0 l/m²64%1024,24,8 km/h (1 Bft) W-NW12,9 km/h (3 Bft) W (00:10)
Kappel-Grafenhausen163 m04:200,60,6 (06:55)3,3 (14:55)0,0 l/m²67%1021,56,4 km/h (2 Bft) N-NO30,6 km/h (5 Bft) N-NO (16:55)
Kißlegg-Staibshof709 m04:25-2,5-2,5 (03:50)-0,9 (00:00)0,0 l/m²81%1023,08,0 km/h (2 Bft) O-NO14,5 km/h (3 Bft) O (01:50)
Kressbronn398 m04:28-0,6-0,6 (04:18)1,4 (00:00)0,0 l/m²70%1021,64,8 km/h (1 Bft) O-NO22,5 km/h (4 Bft) O-NO (00:54)
Kreuzthal-Steinberg-Alpe930 m04:20-4,3-4,8 (04:00)-2,5 (00:00)0,0 l/m²89%1023,01,8 km/h (1 Bft) W-NW22,0 km/h (4 Bft) W-NW (00:10)
Kreuzthal-Steinberggipfel1040 m04:20-3,6-4,0 (02:20)-3,1 (00:10)-78%1023,014,4 km/h (3 Bft) O-NO37,1 km/h (5 Bft) O-SO (00:10)
Kristberg im Montafon (AT)1425 m04:25-5,9-5,9 (02:56)-5,3 (00:40)0,0 l/m²63%1026,30,0 km/h (0 Bft) O-SO10,1 km/h (2 Bft) NO (01:47)
Laupheim500 m04:25-2,7-2,8 (03:10)0,0 (00:00)0,0 l/m²80%1022,93,2 km/h (1 Bft) O-NO9,7 km/h (2 Bft) O-SO (00:20)
Leutkirch-Heggelbach670 m04:25-4,0-4,0 (04:25)-2,6 (00:30)0,0 l/m²84%1022,40,0 km/h (0 Bft) NO8,0 km/h (2 Bft) N-NO (03:30)
Lindau-Insel420 m04:25-0,5-0,5 (07:25)1,8 (14:55)0,0 l/m²69%1022,14,8 km/h (1 Bft) O-NO29,0 km/h (5 Bft) NO (17:05)
Lindau-Stadt412 m04:25-1,4-1,4 (07:25)1,2 (14:55)0,0 l/m²73%1022,33,2 km/h (1 Bft) NO33,8 km/h (5 Bft) N-NO (15:40)
Maierhöfen im Allgäu733 m04:25-2,7-2,7 (04:25)-1,2 (01:35)0,0 l/m²74%1022,64,8 km/h (1 Bft) O-NO25,7 km/h (4 Bft) O-SO (02:05)
Maselheim543 m04:25-4,3-4,4 (06:40)-2,3 (13:20)0,0 l/m²84%1023,60,0 km/h (0 Bft) S-SW24,1 km/h (4 Bft) O-NO (15:20)
Maselheim-Sulmingen548 m04:25-4,4-4,4 (06:40)-2,2 (15:15)0,0 l/m²86%1025,01,6 km/h (1 Bft) N20,9 km/h (4 Bft) N-NO (12:15)
Mietingen-Baltringen528 m04:25-3,9-4,1 (03:25)-1,3 (00:45)0,0 l/m²83%1025,20,0 km/h (0 Bft) O-NO4,8 km/h (1 Bft) N-NO (01:20)
Mindelheim-Apfeltrach620 m04:26-4,7-4,7 (04:11)-2,7 (00:00)0,0 l/m²86%1025,00,0 km/h (0 Bft) NO0,0 km/h (0 Bft) O-NO (00:00)
Mittelbiberach577 m04:26-3,7-3,7 (04:25)-1,0 (00:16)0,0 l/m²81%1024,51,6 km/h (1 Bft) NO11,2 km/h (2 Bft) NO (01:21)
Neresheim552 m04:00-5,5-5,5 (04:00)-2,0 (00:00)0,0 l/m²85%1022,70,0 km/h (0 Bft) O4,0 km/h (1 Bft) NO (01:00)
Neukirch570 m04:25-2,4-2,7 (05:25)-0,9 (14:35)0,0 l/m²79%1022,78,0 km/h (2 Bft) N-NO37,0 km/h (5 Bft) N-NO (11:55)
Ochsenhausen, Birkenstraße613 m04:25-4,5-4,5 (07:10)-2,2 (12:50)0,0 l/m²80%1023,80,0 km/h (0 Bft) SO3,2 km/h (1 Bft) S-SW (07:05)
Ochsenhausen, Unt. Wiesen575 m04:25-4,7-4,7 (04:25)-2,4 (00:00)0,0 l/m²85%1024,90,0 km/h (0 Bft) NO4,8 km/h (1 Bft) NO (00:00)
Opfenbach-Göritz561 m04:26-4,6-5,1 (03:56)-2,8 (00:00)0,0 l/m²77%1020,71,4 km/h (1 Bft) O-NO6,5 km/h (2 Bft) O-NO (00:18)
Ostrach619 m04:25-3,6-3,8 (04:15)-0,6 (00:00)0,0 l/m²87%1021,74,8 km/h (1 Bft) N-NO4,8 km/h (1 Bft) NO (00:00)
Ravensburg, Goethestraße428 m04:25-0,7-0,7 (04:25)1,3 (00:00)0,0 l/m²76%1022,212,9 km/h (3 Bft) NO14,5 km/h (3 Bft) O-NO (02:45)
Ravensburg-Wernsreute511 m04:25-2,1-2,1 (06:15)0,0 (15:50)0,0 l/m²78%1025,117,7 km/h (3 Bft) N35,4 km/h (5 Bft) N-NO (11:45)
Reichenbach an der Fils343 m04:25-1,6-1,6 (04:10)1,0 (00:00)0,0 l/m²75%1026,09,7 km/h (2 Bft) O11,3 km/h (2 Bft) O (01:20)
Riedlingen530 m04:25-2,5-2,5 (04:15)-1,0 (00:00)0,0 l/m²80%1023,60,0 km/h (0 Bft) N-NO0,0 km/h (0 Bft) N (00:00)
Rißtissen489 m04:25-2,3-2,3 (04:20)-0,2 (00:00)0,0 l/m²84%1021,01,6 km/h (1 Bft) O-NO8,0 km/h (2 Bft) O-NO (03:30)
Rottweil-Hausen681 m04:28-3,9-3,9 (04:25)-1,9 (00:00)0,0 l/m²81%1024,03,2 km/h (1 Bft) N-NO6,5 km/h (2 Bft) NO (02:14)
Schemmerhofen520 m04:252,72,7 (00:00)2,7 (00:00)0,0 l/m²55%1022,40,0 km/h (0 Bft) NO0,0 km/h (0 Bft) NO (00:00)
Silbertal im Montafon (AT)884 m04:25-3,8-3,8 (04:24)-1,6 (00:01)0,0 l/m²85%1026,00,0 km/h (0 Bft) O-NO0,0 km/h (0 Bft) O-NO (00:00)
Tettnang466 m04:29-0,7-0,7 (04:19)1,0 (00:00)0,0 l/m²70%1022,47,9 km/h (2 Bft) O-NO16,2 km/h (3 Bft) O-SO (01:07)
Tuttlingen648 m04:21-3,6-3,6 (03:56)-2,1 (00:01)0,0 l/m²74%1024,10,0 km/h (0 Bft) N-NO5,2 km/h (1 Bft) W-SW (03:26)
Tuttlingen, Möhringer-Vorstadt711 m04:25-4,1-4,1 (07:10)-2,4 (16:05)0,0 l/m²81%1023,26,4 km/h (2 Bft) O-NO25,7 km/h (4 Bft) N-NW (12:35)
Ummendorf547 m04:25-2,9-3,0 (04:25)-0,7 (00:10)0,0 l/m²65%1024,40,0 km/h (0 Bft) O16,1 km/h (3 Bft) O (01:05)
Ummendorf-Fischbach558 m04:25-3,6-4,3 (03:55)-1,9 (01:25)0,0 l/m²67%1024,24,8 km/h (1 Bft) SO4,8 km/h (1 Bft) O (04:20)
Waldburg707 m04:25-2,2-2,2 (04:20)-0,8 (00:00)0,0 l/m²76%1022,114,5 km/h (3 Bft) N19,3 km/h (3 Bft) N (02:35)
Waltenhofen im Allgäu720 m04:25-6,7-6,7 (04:25)-2,2 (01:05)0,0 l/m²87%1023,20,0 km/h (0 Bft) N-NW17,7 km/h (3 Bft) N-NW (11:50)
Wangen, Südring548 m04:25-2,8-2,8 (04:21)-0,3 (00:00)0,0 l/m²81%1022,34,7 km/h (1 Bft) NO13,0 km/h (3 Bft) NO (01:25)
Warthausen-Birkenhard581 m04:29-3,4-3,4 (03:48)-1,2 (00:00)0,0 l/m²83%1023,610,1 km/h (2 Bft) N11,9 km/h (3 Bft) N-NO (02:49)
Winterlingen785 m04:15-5,3-5,3 (04:15)-2,8 (01:00)0,0 l/m²83%1023,11,8 km/h (1 Bft) N3,6 km/h (1 Bft) NO (00:55)

niederschlagsdatenbank | info | login - erfassung

Sollten Sie Interesse haben, an der Niederschlagsdatenbank teilzunehmen, finden Sie > hier < weitere Informationen.
Datum: . . Kalender
Anmerkung:0,0 = nicht messbarer Niederschlag
 -  = kein Niederschlag
 k  = kumulierter Niederschlag

< 15.01.201917.01.2019 >


Niederschlagswerte vom 16.01.2019    -    derzeit 112 Stationen

Die Niederschlagswerte des gewählten Tages lassen sich durch Klicken auf das Datum sortieren.
Die Angaben sind in l/m².

Station13.01.14.01.15.01.16.01.17.01.18.01.19.01.Bemerkung 16.01.
Aichstetten Ulmenstraße 7-------
Aichstetten-Nestbaum Nestbaum-------
Albbruck Furmisstr. 1838,54,8--3,2--
Am Morgen Hochnebel, später sonnig +4°C Nachts -2°C
Allmendingen Querqueviller Ring 623,53,5--2,0--
Amstetten-Reutti Gassenäcker 1331,02,0--1,60,8-
Schneehöhe: 17 cm
Aulendorf Steinenbacher Weg 3312,03,2--0,7--
Schneehöhe: 7 cm
Aulendorf-Blönried Heuweg 3212,02,5--1,0--
Bad Bellingen Rheinstraße 76-------
Bad Buchau Hanfweiher 112,02,0--1,5--
Bad Saulgau Walserweg11,52,0--0,0--
Schneehöhe: Reste
Bad Saulgau-Hochberg Lampertsweiler Straße 1210,51,8--0,2--
Bad Schussenried Konradstraße12,41,8--0,30,0-
Bodennebel
Schneehöhe: 8 cm, durchbrochen
Bad Schussenried Lortzingstrasse13,53,0-----
Bad Schussenried Klosterstraße13,02,0-----
Bad Schussenried Theodor-Storm-Strasse12,82,2--0,9--
Bad Schussenried-Hopferbach Unterer Öschweg 16/113,52,0-----
Bad Schussenried-Lufthütte Hauptgasse 17-------
Bad Schussenried-Sattenbeuren Ortsstraße 7-------
Bad Schussenried-Schwaigfurt Schwaigfurt 214,51,2--1,0--
Bad Waldsee-Haisterkirch Zur Spitzenkapelle 117,31,0--0,8--
-6,5/+2,5°C, nach klarer, kalter Nacht ganztags Sonnenschein, zeitwei [weiterlesen...]
Schneehöhe: 23 cm
Bad Wurzach-Seibranz Kimpflerhof 2 17,02,0--3,0--
Schneehöhe: 41 cm
Baienfurt Untere Bergstrasse 716,02,0--2,0--
Balzheim Hinterm Liess 1916,01,5--1,0--
Schneehöhe: Reste
Berg-Kleintobel Kleintobel14,82,1--1,6--
Schneehöhe: 6 cm
Biberach Amriswilstrasse14,71,5----0,8
Schneehöhe: Reste
Biberach Strölinweg32,01,5-----
Biberach Erlenweg-------
Biberach Neue Heimat 5-------
Biberach Mittelbergstraße 914,52,0--1,0--
Biberach Auf dem Lindele-------
Biberach-Bergerhausen Löcherstr.115,51,5--1,0--
Bierstetten Schloßbühl 611,22,0--0,4--
Blaubeuren-Pappelau Sotzenhauserstr.730,0-3,0----
Schneehöhe: 19 cm
Bühlertal Wolfinstraße 1627,0-4,0----
Dettingen a. d. Iller Schleifweg 4-------
Dornstadt-Tomerdingen Maienweg 922,51,6-0,02,50,5-
Dürnau Dorfäckerweg 510,02,0--1,0--
Eberhardzell Lilienweg14,01,20,10,00,20,1-
Schneehöhe: 24 cm
Ebersbach-Roßwälden Appenwiesen24,00,70,0--0,7-
Ehingen Rosenstraße22,03,00,00,01,00,00,0
Nebelnässe
Ehingen Zanderstraße-------
Ehingen Schlaufenbühl30,72,7--0,90,3-
Schneehöhe: unverändert
Ehingen Schillerstraße19,92,0--2,00,0-
8 Uhr: ein herrliches Morgenrot - fast rosa
Ehingen-Herbertshofen Tobelweg 9-------
Eislingen Albstraße 12533,61,30,0-2,80,1-
Erbach-Bach Hauptstraße 2416,02,7--1,5--
Erlenmoos Haldenweg 1518,23,1--1,20,00,0
Schneehöhe: 26 cm
Füramoos Hungersberg 111,75,50,70,00,00,00,0
Gutenzell Kleinser Berg 114,02,0-----
Gutenzell-Hürbel Bei der Sägmühle 114,02,0--1,5--
Herbertingen Drosselweg11,52,5--1,0--
Nebelauflösung noch am Vormittag-danach bei Temperaturen im Plusberei [weiterlesen...]
Herbertingen Hirschstrasse10,01,0--1,0--
Hochdorf-Schweinhausen Lindenweg 216,72,3--1,1--
Hohentengen-Bremen Bremer Halde 413,02,0--0,2--
Horgenzell-Ringgenweiler Ringgenweiler 62017,82,9--4,5--
durchbrochen
Schneehöhe: 10 cm
Hüttisheim Ulmer Weg 215,02,0--1,0-0,0
Illerkirchberg Mahdauweg 2019,31,1--0,9--
Illerrieden-Wangen Am Muckenberg 12-------
Immenstaad Stockwiesen 10-------
Inzigkofen Butzenweg 112,23,0--1,5--
Isny Am Dreifingerbach 3933,43,2--1,8--
Schneehöhe: 58 cm
Kirchberg Rosenstr. 714,02,2--1,2--
Schneehöhe: 13 cm
Kreuzthal-Steinberg-Alpe Im Kreuzbachthal 8544,02,10,0-4,80,0-
Schneehöhe: 112 cm
Langenau Wasserstr. 54-120,04,51,0-3,50,5-
Langenenslingen Schattenweiler Str. 1812,62,20,0-0,90,10,6
Regen Schnee
Schneehöhe: Reste
Leutkirch Unterer Auenweg 2522,01,50,1-2,52,8-
Leutkirch Nachtigallenweg 2825,02,0--5,0--
Schneehöhe: 35cm
Leutkirch-Adrazhofen Bergstraße 2028,03,0--5,0--
Schneehöhe: 47 cm
Merklingen Millergasse 9-------
Mietingen Seerosenweg 10-------
Mietingen-Walpertshofen Bussenweg 31-------
Mittelbiberach-Reute Rindenmooser Straße 214,41,8--1,0--
Schneehöhe: 4 cm, durchbrochen
Moosburg Käserweg 514,51,5--1,5--
Am Nachmittag vielfach sonnig, davor neblig, trüb. Hochnebel. Trocken [weiterlesen...]
Schneehöhe: Reste
Münsingen-Rietheim In der Lise 2026,86,0--6,2--
Schneehöhe: 32 cm
Neresheim Alfred-Delp-Straße 814,66,1--1,80,3-
Schneehöhe: F
Oberdischingen Normannenstraße 7---16,8 k---
Ochsenhausen Ehrensberger Weg 511,92,8-0,60,3--
Schnee
Schneehöhe: 15 cm
Öpfingen Hauptstraße 9919,02,0--2,0--
Bodennebel
Ostrach Uhlandweg10,52,5--1,0--
Pfaffenhofen-Kadeltshofen Mühlbachstraße 411,02,0--1,0--
Pfullendorf Am Schweizersbild -1,0-----
Rangendingen Donaustraße 19-6,0--4,0--
Ravensburg Bleicherstraße12,02,6-1,3---
Ravensburg-Schmalegg St.-Magdalena-Ring 4219,51,50,00,01,00,0-
Schneehöhe: 10 cm
Ravensburg-Wernsreute Wernsreute 2523,02,0--1,6--
Ravensburg-Weststadt Karl-Erb-Ring 14221,02,0--2,0--
Regensburg Orleansstraße 3-------
Riedhausen Blütenweg 1311,42,6--0,8--
Temp. -4,4°C / +4,9°C, Windböen SW 32,2 km/h
Schneehöhe: Reste
Riedlingen Berliner Str. 41-------
Riedlingen-Neufra Panoramaweg-------
Riedlingen-Neufra Riedlinger Strasse-------
Schelklingen-Gundershofen Schwarzer-Straße 1425,05,0--5,0--
Temp. zw. -5,4°C und +0,5°C. Klar und sonnig. Gegen Abend auch Wolke [weiterlesen...]
Schneehöhe: 24 cm
Schemmerberg Drosselweg 924,02,0-0,50,51,0-
Schwörstadt Schulstrasse 1936,23,2--2,6--
Seekirch Haldenberg 7-------
Sigmaringendorf Weingartenstraße 712,22,7--1,4--
Tuttlingen Möhringerstraße 1117,6---0,4--
Ulm Eberhardtstraße 75-30,01,80,0-1,50,0
Ummendorf Tulpenweg19,02,00,0-0,9--
Schneehöhe: Reste
Ummendorf Friedrich-Schiller-Str.-------
Uttenweiler-Ahlen Seekircher Straße 812,02,0--1,2--
Vöhringen (Schwarzwald) Drosselweg 316,0-3,06,03,0--
Waldburg Kastanienweg1119,54,5---2,0-
Wangen-Bergerhöhe Berg 231,93,8--2,2--
Schneehöhe: 45 cm
Warthausen An der Schloßhalde -------
Warthausen Schwabenwiesen 0,75,4---0,7-
Warthausen-Barabein Barabein 2014,02,0--2,0--
Weingarten Laurastraße15,02,0--1,5--
- 1,0 ° C um 5.00 Uhr
Schneehöhe: Reste
Weingarten Hoyerstraße-------
Weingarten Marienstraße15,01,5--1,0--
Schneehöhe: Reste
Wolfegg-Veesers Veesers 1-------
Wolpertswende Aulendorfer Str. 174,90,01,80,40,4--
Regen
Schneehöhe: 3 cm

Stillgelegte Niederschlagsstationen    -    derzeit 49 Stationen

StationLetzte Meldung13.01.14.01.15.01.16.01.17.01.18.01.19.01.Bemerkung 16.01.
Allmannsweiler Eggatsweilerstr.2802.09.2014-------
Aulendorf-Rugetsweiler Erikaweg 325.07.2013-------
Aulendorf-Zollenreute Imterstraße 1209.02.201912,5------
Bad Saulgau Willi-Burth-Straße19.09.2011-------
Bad Saulgau Eichendorffweg28.03.2013-------
Bad Saulgau Seewattenstraße 12815.01.2014-------
Bad Saulgau-Lampertsweiler Valentinstr. 2618.02.2015-------
Bad Schussenried-Steinhausen Drosselgasse 4/126.09.2012-------
Bad Waldsee-Michelwinnanden Michelberg 531.12.2014-------
Bad Waldsee-Osterhofen Hochwaldgasse 406.03.2015-------
Bad Waldsee-Steinach Hofraingasse 1510.11.2013-------
Bad Wurzach-Dietmanns Postweg 519.01.2019-------
Bad Wurzach-Haidgau Wengener Straße 507.10.2012-------
Bad Wurzach-Ziegelbach Ziegelbach-Greut 507.11.2014-------
Bergatreute Bolanden 113.02.2012-------
Betzenweiler Offinger Straße 505.01.2017-------
Burgrieden Am Nonnenberg 328.10.2013-------
Burgrieden-Rot Schmiedgasse 518.09.2013-------
Eberhardzell Schillerstraße05.07.2010-------
Ehingen Am Elzengraben17.06.2016-------
Gammertingen Schillerstraße 2216.01.2016-------
Griesingen Blumenstraße 906.10.2015-------
Günzburg Erlenbadweg 34 1/231.12.2010-------
Hoßkirch Kirchstraße 805.01.2018-------
Ingoldingen-Grodt Ingoldinger Weg 1919.11.2016-------
Kisslegg Kirchmoosstraße02.05.2011-------
Krauchenwies-Hausen Rosenrain 123.11.2013-------
Kressbronn Irisstraße 410.03.2010-------
Leutkirch-Ottmannshofen Spitalriedstraße 527.07.2012-------
Leutkirch-Rotis Rotis 5/208.05.2016-------
Leutkirch-Wuchzenhofen Untere Kirchstraße 18/119.09.2016-------
Mietingen Hangweg 1530.12.2017-------
Mössingen-Bästenhardt Weissdornweg 721.07.2014-------
Ostrach Heiligenberger Straße19.08.2013-------
Pfullendorf Ringstraße 18.03.2012-------
Ravensburg Olgastraße30.10.2016-------
Seltmans Amselweg 2209.04.2013-------
Stuttgart-Bad Cannstatt Beuthener Str. 6703.02.2013-------
Stuttgart-Möhringen Glashütter Weg 1023.04.2017-------
Stuttgart-Rohr Hirschsprung 307.11.2012-------
Talheim Im Schecken 2121.08.2016-------
Tannheim Eggmannstr. 42 22.10.2017-------
Tettnang-Ramsbach Jahnstr. 24/126.03.2011-------
Tuttlingen-Möhringen Belchenstraße01.01.2015-------
Ummendorf Bergstraße23.10.2017-------
Vogt Mühlwies 1822.05.2015-------
Wangen-Atzenberg Keplerweg 324.02.2019-------
Schneehöhe: Schneedecke
Weingarten Bischof-Sproll-Straße30.06.2011-------
Wilhelmsdorf Riedhauser Straße 28.10.2012-------
Wilhelmsdorf Seefeld20.08.2013-------
Wurmlingen An der Steig 3014.10.2016-------
Die Niederschlagswerte des gewählten Tages lassen sich durch Klicken auf das Datum sortieren.
Die Angaben sind in l/m².

Wetterbeobachtungen Legende:

  • Regen
  • Nieselregen
  • Schneeregen
  • Schnee
  • Graupel
  • Eiskörner
  • Hagel
  • Bodennebel
  • Gewitter
  • Nebelnässe
  • Schneegriesel

Grafische Darstellung der Tagesniederschläge vom 16.01.2019

< 15.01.201917.01.2019 >Monats- und Jahresniederschlag


 
wetterstationen
wetterstationen
- derzeit 83 Stationen
niederschlagsdatenbank
wetterstationen
- kartographische Darstellung
niederschlagsdatenbank
niederschlagsstationen
- derzeit 112 Stationen
niederschlagsdatenbank
niederschlagsstationen
- kartographische Darstellung
 
  treffpunkt & service
--- Anzeigen --------------------------------
zugriffe:
insgesamt: 46.623.034
aktueller monat: 223
heute: 223
momentan online: 9
 
 
monatshöchstwert: 653.625
vorheriger monat: 364.213
gestern: 13.565
tageshöchstwert: 57.073
 
wetterwarte süd
 
konradstraße 3
info@wetterwarte-sued.com
roland roth
 
88427 bad schussenried